Regional Weather Roundup
Issued by NWS

Home | Current Version | Previous Version | Text Only | Print | Product List | Glossary On
Versions: 1 2 3 4 5 6 7 8 9 10 11 12 13 14 15 16 17 18 19 20 21 22 23 24 25 26 27 28 29 30 31 32 33 34 35 36 37 38 39 40 41 42 43 44 45 46 47 48 49 50
000
ASUS43 KOAX 190110
RWRNE

WEATHER ROUNDUP FOR NEBRASKA
NATIONAL WEATHER SERVICE OMAHA NE
700 PM CST SAT NOV 18 2017

NOTES: SATELLITE DATA IS BEING USED TO AUGMENT CLOUD COVER ABOVE
       12000 FEET.
       "FAIR" INDICATES FEW OR NO CLOUDS BELOW 12,000 FEET WITH NO
       SIGNIFICANT WEATHER AND/OR OBSTRUCTIONS TO VISIBILITY.


NEZ001>004-019>022-054>056-190200-
NEBRASKA PANHANDLE

CITY           SKY/WX    TMP DP  RH WIND       PRES   REMARKS
SCOTTSBLUFF    CLEAR     34  17  50 W8        30.21R WCI  27
ALLIANCE       CLEAR     24  12  60 W6        30.19R WCI  17
CHADRON        CLEAR     28  18  66 W9        30.19R WCI  19
GORDON         FAIR      30  18  60 W6        30.15S WCI  24
KIMBALL        CLEAR     32  13  45 NW9       30.21R WCI  25
SIDNEY         CLEAR     34  17  50 NW14      30.21R WCI  25
$$

NEZ057>060-069>072-079>082-190200-
SOUTHWEST NEBRASKA

CITY           SKY/WX    TMP DP  RH WIND       PRES   REMARKS
NORTH PLATTE   CLEAR     31  20  63 NW5       30.21R WCI  26
IMPERIAL       CLEAR     35  15  44 NW8       30.23R WCI  29
LEXINGTON      CLEAR     32  24  70 W7        30.20S WCI  26
MCCOOK         CLEAR     34  21  59 NW8       30.23R WCI  27
OGALLALA       CLEAR     31  19  58 CALM      30.22R
$$

NEZ005>010-023>029-035>040-094-190200-
NORTH CENTRAL NEBRASKA

CITY           SKY/WX    TMP DP  RH WIND       PRES   REMARKS
VALENTINE      CLOUDY    37  23  56 CALM      30.17R
AINSWORTH      CLOUDY    36  24  62 NW3       30.17R
BROKEN BOW     CLEAR     36  23  59 W8        30.17R WCI  30
O`NEILL        CLEAR     30  24  77 NW5       30.17R WCI  25
ORD            CLEAR     33  24  69 NW3       30.16R
THEDFORD       CLEAR     34  22  62 W6        30.19R WCI  28
$$

NEZ041-046>049-061>064-073>077-083>087-190200-
SOUTH CENTRAL NEBRASKA

CITY           SKY/WX    TMP DP  RH WIND       PRES   REMARKS
GRAND ISLAND   CLEAR     34  26  72 NW7       30.19R WCI  28
AURORA         CLEAR     32  26  76 NW8       30.18R WCI  25
HASTINGS       CLEAR     32  23  69 NW8       30.19R WCI  25
HEBRON         CLEAR     39  27  61 NW3       30.19R
HOLDREGE       CLEAR     33  25  72 W6        30.20S WCI  27
KEARNEY        CLEAR     36  25  64 W5        30.20R WCI  32
YORK           CLEAR     36  28  75 CALM      30.17R
$$

NEZ011>018-030>034-042>045-190200-
NORTHEAST NEBRASKA

CITY           SKY/WX    TMP DP  RH WIND       PRES   REMARKS
NORFOLK        CLEAR     31  23  72 NW7       30.14R WCI  24
ALBION         CLEAR     33  25  74 NW3       30.17R
BLAIR          CLEAR     35  25  67 NW13      30.13R WCI  26
COLUMBUS       CLEAR     33  24  69 NW9       30.17R WCI  25
FREMONT        CLEAR     34  25  70 NW9       30.16R WCI  26
TEKAMAH        CLEAR     32  21  64 NW10      30.16R WCI  24
WAYNE          CLEAR     30  21  69 NW8       30.15S WCI  23
$$

NEZ050>053-065>068-078-088>093-190200-
SOUTHEAST NEBRASKA

CITY           SKY/WX    TMP DP  RH WIND       PRES   REMARKS
LINCOLN        CLEAR     39  26  59 NW7       30.17R WCI  34
OMAHA EPPLEY   CLEAR     36  24  62 N12       30.15R WCI  28
BEATRICE       CLEAR     33  27  79 NW8       30.17R WCI  26
FALLS CITY     CLEAR     39  27  62 NW9       30.14R WCI  33
NEBRASKA CITY  CLEAR     38  28  69 NW10      30.14R WCI  30
PLATTSMOUTH    CLEAR     37  28  70 NW13      30.13R WCI  28
$$

NEZ044-045-051>053-067-190200-
OMAHA AREA

CITY           SKY/WX    TMP DP  RH WIND       PRES   REMARKS
OMAHA EPPLEY   CLEAR     36  24  62 N12       30.15R WCI  28
BLAIR          CLEAR     35  25  67 NW13      30.13R WCI  26
FREMONT        CLEAR     34  25  70 NW9       30.16R WCI  26
MILLARD        CLEAR     39  26  59 NW8       30.15R WCI  34
OFFUTT AFB     CLEAR     38  23  54 NW13      30.14R WCI  30
PLATTSMOUTH    CLEAR     37  28  70 NW13      30.13R WCI  28
WAHOO          FAIR      35  27  72 NW8       30.16R WCI  28
$$



USA.gov is the U.S. government's official web portal to all federal, state and local government web resources and services.